星链-30392 (STARLINK-30392 )

导读 | 星芒AI

STARLINK-30392 是 SpaceX 星链计划中的一颗低轨通信卫星,属于第 30 批部署的星链卫星群。该卫星于 2024 年发射,旨在为全球用户提供高速互联网服务。它运行在约 550 公里的轨道高度,采用先进的推进和通信技术,支持宽带数据传输。星链项目通过大规模部署此类卫星,构建全球覆盖的卫星互联网网络,提升偏远地区的网络接入能力。STARLINK-30392 的加入进一步增强了星链系统的容量和稳定性。

基本信息
目录编号:
57855
目录名称:
STARLINK-30392
国际标识:
2023-141R
轨道中心:
EARTH
卫星名称:
星链-30392
卫星全名:
星链-30392 (STARLINK-30392 )
卫星状态:
在轨 (已飞行829 天)
发射日期:
2023-09-12 UTC
国别 :
美国 (US)
星等 :
--
轨道信息
数据来源 国际轨道数据
星历时间: 2025-12-18T21:52:47+0800
16小时前
查看轨道信息
半长轴: 6853.349km
偏心率: 0.0001464
轨道倾角: 53.160°
近地点辐角 89.367°
升交点赤经 300.586°
平近点角 270.750°
近地点: 474.21km
远地点: 476.218km
周期: 94.105分钟
每日圈数: 15.302013
详细信息
固有亮度:
5
最大亮度:
0.3
卫星平台:
Starlink v2.0 mini
覆盖范围:
全球
运营商:
太空探索技术公司
运营商所在国:
美国
制造商(研发单位):
太空探索技术公司
制造商所在国:
美国
使用方式:
暂无
卫星简介
星链(Starlink)计划是由太空探索技术公司(SpaceX)提出的一个巨型低轨卫星互联网星座项目,计划在2019年至2024年间在太空搭建由约1.2万颗卫星组成的“星链”网络,其中1584颗将部署在地球上空550千米处的近地轨道,并从2020年开始工作。该卫星仍在工作。
2D轨道图
3D轨道图
轨道高度分析图
轨道倾角分析图
轨道综合分析图
查看轨道综合分析图